This is the latest recevied weather packets stored in our database for station/object KA1GJU-3. If no packets are shown the sender has not sent any weather packets the latest 1 day(s).
| Time | Temp. | Humidity | Pressure | Rain* | Wind** | Luminosity | Snow |
|---|---|---|---|---|---|---|---|
| 1778024056 | 22.22° C | 100% | 0 hPa | 0 mm | 1.79 m/s, 264° | - | - |
| 1778023456 | 22.22° C | 100% | 0 hPa | 0 mm | 1.79 m/s, 234° | - | - |
| 1778022856 | 22.22° C | 100% | 0 hPa | 0 mm | 2.68 m/s, 293° | - | - |
| 1778022262 | 22.78° C | 100% | 0 hPa | 0 mm | 3.13 m/s, 240° | - | - |
| 1778021656 | 23.33° C | 100% | 0 hPa | 0 mm | 7.6 m/s, 196° | - | - |
| 1778021056 | 23.33° C | 100% | 0 hPa | 0 mm | 2.68 m/s, 232° | - | - |
| 1778020457 | 24.44° C | 100% | 0 hPa | 0 mm | 2.68 m/s, 230° | - | - |
| 1778019857 | 24.44° C | 100% | 0 hPa | 0 mm | 2.68 m/s, 241° | - | - |
| 1778019257 | 25° C | 100% | 0 hPa | 0 mm | 1.79 m/s, 248° | - | - |
| 1778018657 | 25° C | 100% | 0 hPa | 0 mm | 5.36 m/s, 175° | - | - |
| 1778018057 | 25.56° C | 100% | 0 hPa | 0 mm | 6.26 m/s, 202° | - | - |
| 1778017457 | 25.56° C | 100% | 0 hPa | 0 mm | 3.58 m/s, 253° | - | - |
| 1778016857 | 26.11° C | 100% | 0 hPa | 0 mm | 4.02 m/s, 222° | - | - |
| 1778016257 | 26.67° C | 100% | 0 hPa | 0 mm | 3.13 m/s, 267° | - | - |
| 1778015657 | 26.67° C | 100% | 0 hPa | 0 mm | 4.92 m/s, 160° | - | - |
| 1778014457 | 27.22° C | 100% | 0 hPa | 0 mm | 4.92 m/s, 244° | - | - |
| 1778013857 | 27.22° C | 100% | 0 hPa | 0 mm | 3.13 m/s, 188° | - | - |
| 1778013257 | 28.33° C | 100% | 0 hPa | 0 mm | 7.15 m/s, 189° | - | - |
| 1778012657 | 27.78° C | 100% | 0 hPa | 0 mm | 4.02 m/s, 289° | - | - |
| 1778012057 | 27.78° C | 100% | 0 hPa | 0 mm | 2.68 m/s, 262° | - | - |
| 1778011457 | 26.67° C | 100% | 0 hPa | 0 mm | 1.79 m/s, 246° | - | - |
| 1778010857 | 28.33° C | 100% | 0 hPa | 0 mm | 1.34 m/s, 188° | - | - |
| 1778010257 | 27.78° C | 100% | 0 hPa | 0 mm | 7.15 m/s, 201° | - | - |
| 1778009657 | 27.78° C | 100% | 0 hPa | 0 mm | 3.13 m/s, 268° | - | - |
| 1778009057 | 28.33° C | 100% | 0 hPa | 0 mm | 2.68 m/s, 251° | - | - |
* Rain latest hour (hover to see other rain measurements)
** Current wind speed in m/s (hover to see current wind gust speed)